Tracking 22019 objects as of 2-Dec-2020
HD Live streaming from Space Station
objects crossing your sky now

USA 24

Track USA 24 now!
10-day predictions
USA 24 is classified as:


NORAD ID: 18010
Int'l Code: 1987-043F
Perigee: 390.7 km
Apogee: 1,795.2 km
Inclination: 63.3 °
Period: 107.0 minutes
Semi major axis: 7463 km
RCS: Unknown
Launch date: May 15, 1987
Source: United States (US)
Launch site: AIR FORCE WESTERN TEST RANGE (AFWTR)
aabbcc
Your satellite tracking list
Your tracking list is empty




NASA's NSSDC Master Catalog

Two Line Element Set (TLE):
1 18010U 87043F   20336.50885776 +.00001171 +00000-0 +11034-3 0  9994
2 18010 063.3044 052.5203 0940828 066.5662 303.1397 13.46323514069879
Source of the keplerian elements: McCants